Regional Weather Roundup
Issued by NWS

Home | Current Version | Previous Version | Text Only | Print | Product List | Glossary On
Versions: 1 2 3 4 5 6 7 8 9 10 11 12 13 14 15 16 17 18 19 20 21 22 23 24 25 26 27 28 29 30 31 32 33 34 35 36 37 38 39 40 41 42 43 44 45 46 47 48 49 50
000
ASUS46 KPQR 251210
RWROR

OREGON REGIONAL WEATHER ROUNDUP
NATIONAL WEATHER SERVICE PORTLAND OR
500 AM PDT SAT MAR 25 2017

NOTE: "FAIR" INDICATES FEW OR NO CLOUDS BELOW 12,000 FEET WITH
NO SIGNIFICANT WEATHER AND/OR OBSTRUCTIONS TO VISIBILITY.

ORZ001>013-251300-
NORTHWEST OREGON


CITY           SKY/WX    TMP DP  RH WIND       PRES   REMARKS
ASTORIA        CLOUDY    44  41  89 SE3       30.09R
6HR MIN TEMP:  43; 6HR MAX TEMP:  47; 6HR PCP:  0.03;

NEWPORT        MOCLDY    46  41  81 SW9       30.16S
PORTLAND       MOCLDY    44  41  89 S8        30.13S
6HR MIN TEMP:  43; 6HR MAX TEMP:  48; 6HR PCP: TRACE;

VANCOUVER WA   PTCLDY    46  43  89 S5        30.12S
6HR MIN TEMP:  45; 6HR MAX TEMP:  48;

SCAPPOOSE      MOCLDY    37  37 100 CALM      30.12S
6HR MIN TEMP:  36; 6HR MAX TEMP:  42;

HILLSBORO      MOCLDY    38  37  97 N5        30.12S WCI  34
6HR MIN TEMP:  37; 6HR MAX TEMP:  46; 6HR PCP: TRACE;

AURORA         CLOUDY    44  42  93 CALM      30.14S
6HR MIN TEMP:  44; 6HR MAX TEMP:  47;

MCMINNVILLE    LGT RAIN  41  39  93 S5        30.13F
6HR MIN TEMP:  41; 6HR MAX TEMP:  47; 6HR PCP: TRACE;

SALEM          CLOUDY    45  42  89 S7        30.13R
6HR MIN TEMP:  43; 6HR MAX TEMP:  47; 6HR PCP: TRACE;

CORVALLIS      CLOUDY    45  41  87 S3        30.14S
EUGENE         CLOUDY    45  45 100 SW5       30.15S
6HR MIN TEMP:  44; 6HR MAX TEMP:  47; 6HR PCP:  0.02;

$$

ORZ021-028-251300-
SOUTHWEST OREGON


CITY           SKY/WX    TMP DP  RH WIND       PRES   REMARKS
NORTH BEND     CLOUDY    46  45  93 S3        30.18R
6HR MIN TEMP:  46; 6HR MAX TEMP:  48; 6HR PCP:  0.14;

BROOKINGS      LGT RAIN  45  44  97 CALM      30.18S
ROSEBURG       CLOUDY    46  45  96 CALM      30.15F
6HR MIN TEMP:  46; 6HR MAX TEMP:  48; 6HR PCP:  0.03;

SEXTON SUMMIT  FOG       34  34 100 S9        30.07F VSB 1/4 WCI  27
6HR MIN TEMP:  34; 6HR MAX TEMP:  35; 6HR PCP:  0.01;

MEDFORD        CLOUDY    41  40  96 E3        30.14S
6HR MIN TEMP:  41; 6HR MAX TEMP:  46;

$$

ORZ014>016-041-251300-
COLUMBIA GORGE


CITY           SKY/WX    TMP DP  RH WIND       PRES   REMARKS
TROUTDALE      CLOUDY    46  42  86 CALM      30.13S
6HR MIN TEMP:  46; 6HR MAX TEMP:  49; 6HR PCP: TRACE;

THE DALLES     CLOUDY    45  41  86 CALM      30.10S
6HR MIN TEMP:  45; 6HR MAX TEMP:  48;

$$

ORZ029>031-041-044-049-050-061>064-502-503-505>511-251300-
EASTERN OREGON


CITY           SKY/WX    TMP DP  RH WIND       PRES   REMARKS
REDMOND        MOCLDY    41  28  60 S12       30.03F
6HR MIN TEMP:  35; 6HR MAX TEMP:  41;

BEND           MOCLDY    39  30  70 S12       30.05S WCI  32
PRINEVILLE     MOCLDY    37  30  75 E8        30.05S WCI  31
KLAMATH FALLS  MOCLDY    28  26  92 SE3       30.10S
6HR MIN TEMP:  27; 6HR MAX TEMP:  38;

LAKEVIEW       CLOUDY    32  28  86 CALM      30.11S
HERMISTON      CLOUDY    41  39  93 S5        30.08S
6HR MIN TEMP:  34; 6HR MAX TEMP:  45; 6HR PCP: TRACE;

PENDLETON      CLOUDY    41  35  79 S3        30.08R
6HR MIN TEMP:  37; 6HR MAX TEMP:  44;

JOHN DAY       CLEAR     34  32  91 CALM      30.08S
MEACHAM        FRZ RAIN  33  29  85 CALM      30.05R
6HR MIN TEMP:  30; 6HR MAX TEMP:  32; 6HR PCP: TRACE;

LA GRANDE      PTCLDY    34  28  80 SE3       30.07R
6HR MIN TEMP:  34; 6HR MAX TEMP:  39;

BAKER CITY     FOG       27  26  96 NW5       30.07S VSB 1/2 WCI  22
6HR MIN TEMP:  26; 6HR MAX TEMP:  34;

BURNS          MOCLDY    28  27  96 CALM      30.10R
6HR MIN TEMP:  27; 6HR MAX TEMP:  37;

ROME             N/A     36  28  73 W3        30.08R
6HR MIN TEMP:  33; 6HR MAX TEMP:  42;

ONTARIO        MOCLDY    39  37  92 SW3       30.10S
6HR MIN TEMP:  38; 6HR MAX TEMP:  44;

$$



USA.gov is the U.S. government's official web portal to all federal, state and local government web resources and services.